Flag for U.S.A. Weather past 2 weeks in Tucson, Arizona, U.S.A.

Now
48 °F

Clear.


Feels Like: 46 °F
Forecast: 49 / 79 °F
Wind: 5 mph from Southeast

Location: Davis-Monthan Air Force Base

Current Time: Apr 27, 2015 at 8:39:16 AM

Latest Report: Apr 27, 2015 at 4:58 AM


Visibility: 10 mi

Pressure: 29.82 "Hg

Humidity: 72%

Dew point: 40 °F

Location of TucsonLocation

Historic Weather in Tucson — Graph

°F

Tucson temperature yesterday

Maximum temperature yesterday: 70 °F (at 3:58 PM)
Minimum temperature yesterday: 51 °F (at 4:58 AM)
Average temperature yesterday: 60 °F

Past Weeks' High & Low Weather Summary

 TemperatureHumidityPressure
High87 °F (Apr 20, 2:58 PM)89% (Apr 26, 3:58 AM)30.10 "Hg (Apr 26, 3:58 AM)
Low42 °F (Apr 17, 5:58 AM)6% (Apr 15, 6:58 PM)29.66 "Hg (Apr 20, 6:58 PM)
Average66 °F30%29.84 "Hg
* Reported Apr 12 4:58 AM — Apr 27 4:58 AM, Tucson, Weather by CustomWeather, © 2015

Note: Actual official high and low records may vary slightly from our data, if they occured in-between our weather recording intervals... More about our weather records

Advertising

Tucson weather history for previous 24 hours

 ConditionsComfort  
Time TempWeatherWind HumidityBarometerVisibility
4:58 AM
Mon, Apr 27
48 °FClear.5 mph72%29.82 "Hg10 mi
3:58 AM49 °FClear.6 mph75%29.81 "Hg10 mi
2:58 AM50 °FClear.6 mph73%29.81 "Hg10 mi
1:58 AM51 °FClear.5 mph62%29.81 "Hg10 mi
12:58 AM52 °FClear.6 mph61%29.81 "Hg10 mi
11:58 PM
Sun, Apr 26
54 °FClear.2 mph65%29.83 "Hg10 mi
10:58 PM59 °FPassing clouds.1 mph52%29.82 "Hg10 mi
9:58 PM59 °FPartly cloudy.6 mph49%29.82 "Hg10 mi
8:58 PM61 °FClear.7 mph39%29.80 "Hg10 mi
7:58 PM64 °FClear.6 mph29%29.79 "Hg10 mi
6:58 PM66 °FSunny.12 mph26%29.76 "Hg10 mi
5:58 PM69 °FScattered clouds.15 mph24%29.75 "Hg10 mi
4:58 PM70 °FScattered clouds.9 mph23%29.75 "Hg10 mi
3:58 PM70 °FSunny.15 mph23%29.75 "Hg10 mi
2:58 PM68 °FPassing clouds.13 mph29%29.75 "Hg10 mi
1:58 PM66 °FScattered clouds.14 mph33%29.77 "Hg10 mi
12:58 PM65 °FScattered clouds.16 mph36%29.79 "Hg10 mi
11:58 AM64 °FScattered clouds.18 mph40%29.78 "Hg10 mi
10:58 AM62 °FBroken clouds.18 mph46%29.80 "Hg10 mi
9:58 AM61 °FScattered clouds.16 mph52%29.80 "Hg10 mi
9:57 AM61 °FScattered clouds.14 mph52%29.88 "Hg10 mi
8:58 AM57 °FPassing clouds.13 mph71%29.80 "Hg10 mi
Weather by CustomWeather, © 2015

See weather overviewHow to use our weather pages